{"data":{"norad_id":64832,"intl_designator":"2025-151S","name":"KUIPER-00086","alt_names":[],"object_type":"PAYLOAD","status":"ACTIVE","operator":null,"country":"US","launch_date":"2025-07-16","launch_site_code":"AFETR","launch_vehicle":null,"mission":null,"orbit_class":"UNKNOWN","rcs_meters":null,"size_class":null,"mass_kg":null,"dimensions":null,"purposes":[],"wikipedia_slug":null,"has_3d_model":false,"image_url":null,"decayed_at":null,"tle_current":{"epoch":"2026-05-24T21:39:50.096160Z","epoch_age_seconds":80926,"freshness":"FRESH","line1":"1 64832U 25151S   26144.90266315  .00000085  00000+0  40205-4 0  9993","line2":"2 64832  51.9014 321.0923 0000767 129.0229 231.0802 14.79932197 46626","mean_motion":14.79932197,"eccentricity":7.67e-5,"inclination_deg":51.9014,"raan_deg":321.0923,"arg_perigee_deg":129.0229,"mean_anomaly_deg":231.0802,"bstar":4.0205e-5,"rev_number":4662,"period_min":97.301754966819,"perigee_km":629.00067536307,"apogee_km":630.07565273324,"semimajor_km":7007.6751640482,"source":"CELESTRAK","updated_at":"2026-05-25T13:38:04.826295Z"}}}